Location: Cheching
(60.0667°N, 164.2167°W)
Time: 10:53:39
(UTC+00:00)

NOAA 19 - Pass Details

Date: 18 January 2021
Orbit: 840 x 862 km, 99.2° (Epoch: 27 February)

Event Time Altitude Azimuth Distance (km) Brightness Sun altitude
Rises 16:15:51 0° 23° (NNE) 3,437 8.7 -24.0°
Reaches altitude 10° 16:19:13 10° 44° (NE) 2,491 8.2 -23.6°
Maximum altitude 16:22:37 16° 83° (E) 2,061 8.1 -23.1°
Drops below altitude 10° 16:26:00 10° 121° (ESE) 2,472 8.5 -22.7°
Sets 16:29:18 0° 142° (SE) 3,398 8.9 -22.3°
